Powrót do katalogu

SL-16 DEB

AktywnyLEO
NORAD 31794·DEBRIS·🇷🇺 Russia

Wystrzelony Jun 29, 2007 z Baikonur Cosmodrome

Loading…

Następne Przeloty (najbliższe 24 godziny)

TLE

ŚwieżeSource: Space-Track

Epoka: Sep 14, 2026, 02:07 UTC

1 31794U 07029C   26257.08841507  .00000046  00000-0  83706-4 0  9995
2 31794  71.0421 123.8822 0204725 182.3480 331.2207 13.71801572961530

Śledź SL-16 DEB w czasie rzeczywistym z AllMySat

Download on the App Store